Wind_Speed
16 17 17 16 15 14 14 13 13 13 12 11 11 11 10 11 11 11 11 12 12 12 11 11 10 11 12 12 14 14 12 12 8 9 8 5 4 7 8 8 7 8 6 4 4
16 16 16 16 15 14 14 14 14 14 13 13 12 12 11 11 12 12 12 12 12 11 11 11 11 11 11 11 11 12 13 10 10 8 9 7 6 7 8 8 10 10 9 7 6
17 17 16 16 16 16 16 15 14 14 13 13 13 12 12 12 12 13 13 12 12 12 11 10 11 10 10 10 11 11 11 10 9 9 11 11 10 10 11 12 8 9 11 11 10
17 17 16 16 16 16 16 16 15 14 13 13 13 13 13 13 10 14 13 13 12 12 11 11 11 10 10 10 10 9 10 9 9 9 10 11 13 14 15 12 12 13 15 14 11
18 17 16 16 16 16 15 15 15 14 14 14 13 13 14 14 13 9 13 12 12 12 12 11 12 11 10 9 9 9 9 9 10 11 13 14 15 17 16 15 15 15 15 14 15
19 18 17 16 16 16 15 15 14 14 14 14 14 15 15 14 14 12 11 9 9 11 12 12 13 11 10 10 9 8 10 10 11 13 14 15 17 17 12 13 16 15 15 15 16
20 20 18 16 16 15 15 14 14 14 14 14 14 15 15 15 14 14 14 12 11 10 10 12 12 11 9 9 11 11 11 12 13 13 15 16 21 16 10 14 16 14 15 16 16
22 21 20 19 17 16 16 15 15 15 15 15 14 15 15 15 16 13 14 13 13 13 13 12 12 12 11 11 11 10 11 13 11 11 14 16 23 14 14 15 15 17 18 19 19
22 22 22 21 19 19 18 18 17 17 17 16 16 15 16 16 16 16 16 15 14 14 13 13 13 14 13 12 12 11 12 13 12 13 14 17 22 14 12 14 17 19 20 21 22
21 19 23 22 22 21 20 20 20 21 20 19 19 17 18 11 17 19 18 18 17 17 16 16 17 16 16 15 11 8 12 16 14 13 16 21 26 20 19 20 21 23 23 22 22
30 26 22 19 20 18 18 18 21 23 24 22 19 14 18 15 14 15 14 22 22 20 20 20 20 21 15 13 16 17 18 20 19 19 23 25 29 25 20 26 26 25 25 25 25
35 34 34 30 30 27 24 20 19 22 24 27 26 27 25 22 19 18 18 17 17 20 23 23 26 16 17 18 19 20 20 21 21 21 25 27 35 31 28 27 28 29 29 27 27
37 37 40 38 37 33 31 27 26 24 26 31 29 30 28 28 28 26 23 20 20 20 19 21 16 14 15 19 21 21 22 21 21 23 28 32 42 36 30 31 29 27 29 31 30
34 34 34 23 35 38 35 35 29 29 22 34 33 34 35 32 36 33 30 29 27 24 22 21 25 26 26 26 20 28 23 22 21 20 21 18 14 41 36 35 33 29 25 25 28
32 35 34 33 32 31 30 29 30 26 5 14 23 29 34 35 42 38 37 34 34 31 29 27 24 23 27 28 24 28 24 21 20 20 28 27 16 32 34 40 38 31 24 19 17
29 32 35 35 37 34 28 27 35 23 12 14 18 21 27 31 40 39 33 37 38 34 35 38 36 32 28 25 19 22 17 14 17 18 13 25 22 46 38 38 29 32 23 24 22
31 30 33 36 39 35 30 30 27 9 21 17 17 25 21 26 31 35 35 36 36 31 43 42 44 41 39 34 28 24 16 4 4 2 9 5 15 44 34 30 22 24 22 10 12
34 33 32 33 36 34 33 37 16 10 28 14 16 22 21 18 22 26 31 32 36 39 25 25 25 40 44 44 31 27 32 16 7 4 6 9 16 26 33 28 35 28 13 17 19
36 36 35 32 31 34 35 37 35 32 28 30 19 15 21 24 24 25 28 30 33 37 38 11 20 25 23 18 28 29 34 31 26 23 10 18 39 45 37 21 13 13 25 12 9
39 37 39 32 33 30 32 44 43 43 32 28 28 20 23 26 25 25 22 22 34 34 32 23 22 21 17 22 24 35 19 13 16 3 5 13 20 27 23 19 8 11 14 8 7
38 41 39 36 34 34 43 38 47 51 41 40 32 20 24 27 28 31 22 28 24 21 26 34 28 18 17 28 31 30 33 19 13 12 5 3 20 22 18 13 6 9 13 7 9
34 38 37 36 37 43 48 52 48 42 39 42 41 42 41 36 35 35 41 40 17 30 28 24 19 32 39 29 24 32 39 42 20 8 16 19 41 19 17 15 14 14 17 21 16
30 33 33 26 34 46 52 52 51 46 40 34 36 44 44 41 37 41 42 41 38 35 30 28 23 25 20 26 29 33 39 38 38 32 35 12 42 8 10 19 18 22 24 23 22
28 25 29 37 38 36 42 53 53 53 50 35 38 40 39 42 39 41 38 43 44 43 41 39 31 32 32 18 14 33 46 42 41 29 54 38 67 56 39 31 28 23 26 31 29
32 33 31 18 41 47 34 37 38 51 47 41 54 55 45 37 45 44 48 46 40 42 41 41 38 40 51 47 33 29 19 22 43 52 36 59 48 69 55 51 49 44 41 38 42
37 37 33 31 28 24 49 52 43 30 37 44 45 47 49 55 45 42 38 47 42 33 36 38 42 39 52 52 50 47 42 42 47 46 42 58 60 62 52 52 52 52 47 44 41
37 41 39 36 30 29 41 36 55 51 53 47 36 43 41 46 47 52 45 45 40 43 38 41 43 39 38 50 46 34 62 65 63 65 63 56 64 57 59 58 54 49 50 52 49
Wind_Direction
203 203 206 206 201 202 205 207 209 211 209 205 205 202 195 191 194 192 189 189 188 187 186 189 189 188 189 198 206 211 219 219 221 198 207 224 236 237 232 239 242 240 237 220 214
208 204 204 204 203 201 203 205 206 210 206 206 207 208 205 203 200 200 198 197 196 199 201 202 202 200 197 201 207 211 223 233 227 218 220 228 250 248 246 259 255 250 246 254 257
205 205 202 201 202 202 203 205 206 208 211 209 209 210 211 210 210 208 207 204 206 211 212 213 216 218 217 214 217 221 228 230 219 211 215 231 234 247 253 257 276 265 253 252 258
200 200 200 202 201 203 205 207 209 207 211 214 214 215 215 212 212 214 211 210 212 214 218 219 222 224 227 224 224 226 226 225 229 228 226 233 242 250 259 273 269 256 246 247 251
193 200 201 202 205 206 208 210 212 212 211 213 218 218 219 216 215 213 210 213 215 216 220 221 222 223 224 227 227 225 226 230 239 246 252 253 252 256 264 260 257 254 253 247 244
196 199 203 205 208 211 213 214 216 216 216 217 216 219 220 221 217 209 194 197 208 215 217 218 219 221 221 223 222 230 238 246 252 256 256 258 257 256 272 257 255 252 252 250 248
207 203 207 212 216 219 221 223 224 223 221 222 222 222 222 220 224 220 218 215 212 208 204 206 206 207 215 233 241 251 260 266 264 263 263 266 260 271 278 253 249 248 245 249 255
221 217 213 216 219 225 232 236 236 236 233 230 230 230 231 225 227 224 223 219 217 216 216 220 226 231 234 241 250 257 268 266 271 270 268 265 272 277 265 260 254 249 252 256 258
229 230 224 223 226 229 233 236 243 244 245 243 241 242 241 232 232 229 228 225 225 224 223 227 234 238 240 245 256 259 262 271 276 272 272 269 277 278 274 264 260 258 255 252 253
228 242 235 230 227 231 237 242 245 247 247 249 248 251 240 230 233 234 233 232 233 234 233 233 236 240 245 245 257 279 274 273 272 282 279 277 279 277 273 267 260 255 255 255 255
248 242 241 230 227 228 236 243 251 255 252 249 244 240 245 239 233 238 233 239 238 238 239 243 242 246 268 273 266 267 269 275 284 283 281 280 280 276 268 266 264 261 261 261 259
245 253 241 245 244 243 246 251 258 258 259 253 249 248 246 243 245 245 243 240 235 239 242 245 250 259 255 252 258 262 268 276 288 286 282 284 279 279 272 268 269 271 266 265 262
237 245 239 241 239 240 246 253 256 260 267 259 252 250 249 248 247 244 244 242 239 241 244 251 253 249 246 250 257 267 270 282 288 290 284 285 282 281 281 274 271 272 277 273 270
237 235 234 248 240 241 247 252 254 253 264 264 264 260 247 247 248 240 238 239 242 245 247 259 249 251 255 256 262 269 275 278 281 285 283 280 289 284 285 281 283 289 289 285 276
236 238 238 239 237 245 243 240 238 242 258 253 240 241 241 235 245 242 238 238 241 242 241 247 257 256 258 264 265 271 271 275 277 276 280 270 269 283 286 287 295 300 296 286 272
240 238 238 238 239 239 240 235 243 209 221 227 222 229 225 226 233 235 234 235 239 239 243 246 249 254 257 259 254 258 263 268 274 272 269 262 244 281 278 289 295 305 301 274 263
241 240 238 238 239 235 237 238 235 207 222 234 226 225 223 227 230 231 231 229 225 222 236 242 245 247 251 253 250 244 241 269 291 193 243 260 224 264 278 283 297 309 306 236 276
240 239 239 241 240 233 237 233 218 242 222 247 233 219 221 219 233 236 234 233 233 232 238 240 251 253 249 249 245 244 239 219 214 208 271 289 239 268 283 279 287 290 300 273 268
240 238 237 236 240 241 234 233 233 228 239 214 234 212 220 219 226 229 229 235 241 236 229 232 247 253 252 250 238 230 225 247 245 271 293 266 270 278 280 293 291 287 287 261 232
244 240 239 233 234 230 236 234 239 240 235 244 244 245 240 232 221 228 230 243 240 245 239 239 253 255 250 235 228 223 237 202 198 195 248 267 274 264 282 305 294 290 251 192 272
247 242 239 232 231 225 224 234 242 243 236 241 239 236 233 231 229 230 232 249 255 252 247 236 235 252 242 232 234 219 225 217 212 218 184 289 272 282 291 301 280 194 183 289 261
251 243 241 233 228 229 229 232 237 243 243 248 245 245 244 243 246 247 251 251 252 243 236 247 235 244 248 251 243 235 239 228 216 216 226 245 265 284 251 248 264 231 251 267 274
252 248 233 219 227 231 237 239 240 242 244 236 237 243 247 243 243 246 248 248 241 244 234 242 221 240 257 249 243 235 235 238 240 240 242 210 259 253 258 303 267 249 250 276 264
248 251 238 223 219 235 239 240 241 243 238 240 241 236 235 233 233 239 239 251 254 251 247 254 233 229 231 231 260 235 242 237 233 227 246 240 260 261 262 262 265 259 273 280 264
239 243 245 229 232 230 232 240 248 244 243 244 243 244 250 237 242 239 245 247 247 249 248 243 237 239 250 252 253 247 235 239 231 245 232 261 255 271 272 278 281 279 275 266 264
234 242 246 244 238 234 233 234 236 237 244 242 243 245 247 242 247 248 251 247 238 244 241 238 237 244 252 252 246 246 252 249 247 254 258 264 268 266 271 276 279 280 281 281 276
232 239 243 245 243 242 235 240 242 249 244 246 244 242 247 251 257 258 260 255 252 249 237 234 232 237 243 259 253 256 247 248 253 256 258 254 269 285 276 277 283 287 286 284 285
Height
3124 3127 3129 3131 3133 3135 3137 3139 3142 3144 3146 3147 3149 3150 3151 3153 3155 3156 3157 3160 3161 3162 3164 3166 3167 3168 3169 3170 3171 3172 3173 3173 3173 3174 3175 3177 3178 3179 3180 3181 3182 3183 3184 3185 3186
3123 3125 3127 3129 3131 3132 3135 3139 3140 3142 3144 3146 3147 3149 3151 3152 3154 3155 3157 3158 3160 3162 3163 3164 3166 3167 3168 3169 3170 3170 3171 3172 3173 3174 3175 3176 3177 3178 3179 3180 3181 3182 3184 3184 3185
3122 3124 3126 3127 3129 3131 3134 3136 3138 3140 3143 3145 3146 3148 3150 3151 3153 3154 3155 3157 3159 3161 3162 3163 3165 3167 3167 3167 3168 3169 3169 3170 3171 3172 3173 3174 3175 3176 3176 3177 3180 3181 3182 3182 3183
3120 3122 3124 3127 3129 3131 3133 3134 3136 3138 3141 3143 3145 3146 3149 3150 3154 3152 3153 3155 3157 3158 3160 3161 3163 3165 3166 3166 3167 3168 3168 3168 3170 3171 3172 3173 3173 3174 3174 3176 3176 3177 3179 3180 3181
3117 3121 3124 3126 3128 3130 3132 3134 3135 3137 3138 3140 3142 3144 3147 3148 3150 3150 3151 3153 3154 3156 3158 3159 3161 3162 3163 3164 3164 3165 3167 3168 3168 3169 3170 3170 3171 3171 3171 3173 3173 3174 3175 3177 3178
3115 3118 3122 3125 3127 3128 3130 3132 3133 3135 3136 3138 3140 3143 3145 3147 3147 3149 3149 3151 3152 3154 3155 3157 3159 3160 3162 3162 3163 3163 3164 3166 3167 3166 3167 3168 3167 3168 3169 3169 3170 3171 3172 3173 3175
3113 3115 3118 3121 3124 3126 3128 3130 3131 3133 3135 3136 3138 3139 3141 3144 3145 3146 3148 3149 3150 3152 3153 3155 3156 3159 3160 3161 3161 3161 3163 3163 3163 3164 3164 3164 3163 3164 3166 3166 3166 3168 3169 3170 3171
3111 3112 3114 3117 3120 3123 3125 3128 3129 3131 3133 3135 3136 3137 3138 3140 3142 3144 3145 3147 3148 3150 3152 3153 3155 3156 3158 3159 3159 3159 3160 3160 3160 3161 3161 3161 3158 3162 3161 3162 3163 3164 3165 3166 3167
3107 3109 3111 3113 3116 3119 3122 3124 3126 3128 3130 3132 3134 3134 3136 3137 3139 3140 3143 3144 3147 3148 3149 3150 3152 3154 3156 3156 3157 3157 3156 3156 3158 3157 3158 3158 3155 3158 3158 3158 3159 3160 3160 3161 3162
3103 3105 3108 3110 3112 3115 3118 3120 3122 3125 3126 3128 3130 3133 3133 3134 3136 3137 3139 3141 3143 3145 3146 3148 3149 3151 3152 3153 3154 3154 3154 3154 3154 3155 3153 3152 3150 3153 3154 3154 3155 3155 3155 3156 3156
3098 3101 3104 3106 3109 3112 3114 3117 3121 3122 3121 3124 3125 3126 3130 3130 3131 3134 3135 3138 3139 3141 3142 3144 3146 3147 3150 3151 3150 3151 3151 3151 3151 3151 3149 3147 3144 3147 3150 3147 3147 3149 3149 3150 3150
3091 3094 3098 3101 3104 3107 3110 3112 3114 3116 3115 3117 3119 3121 3125 3126 3128 3130 3133 3135 3134 3136 3138 3141 3140 3145 3145 3146 3146 3146 3147 3147 3148 3147 3145 3142 3136 3138 3140 3141 3141 3143 3142 3143 3144
3086 3090 3092 3093 3097 3101 3104 3107 3110 3110 3110 3111 3112 3114 3119 3122 3122 3125 3128 3129 3130 3131 3134 3135 3139 3139 3141 3141 3142 3143 3142 3144 3145 3143 3140 3136 3126 3130 3133 3132 3134 3136 3136 3135 3135
3078 3082 3086 3081 3092 3094 3098 3101 3104 3106 3106 3102 3104 3106 3109 3113 3113 3117 3120 3124 3126 3128 3131 3130 3133 3134 3135 3136 3140 3136 3139 3140 3140 3140 3135 3131 3121 3119 3124 3124 3126 3129 3128 3127 3127
3071 3075 3078 3081 3083 3088 3094 3095 3098 3101 3103 3097 3093 3092 3097 3104 3102 3108 3113 3116 3117 3121 3126 3123 3126 3128 3129 3132 3136 3133 3135 3136 3136 3136 3131 3125 3130 3108 3113 3114 3119 3120 3120 3119 3119
3064 3067 3071 3073 3076 3081 3085 3088 3091 3094 3087 3084 3085 3085 3090 3092 3093 3099 3105 3109 3111 3115 3116 3116 3119 3122 3124 3127 3130 3129 3130 3132 3132 3131 3123 3116 3123 3095 3102 3106 3108 3113 3112 3111 3111
3056 3061 3064 3066 3069 3075 3080 3081 3081 3070 3075 3077 3079 3081 3084 3087 3089 3093 3096 3100 3104 3107 3105 3108 3109 3113 3117 3120 3123 3124 3127 3130 3130 3128 3114 3110 3113 3090 3095 3101 3101 3103 3105 3103 3104
3049 3054 3056 3060 3063 3069 3073 3076 3059 3066 3071 3072 3076 3079 3080 3083 3085 3088 3091 3093 3096 3099 3100 3103 3103 3104 3107 3109 3114 3117 3119 3122 3125 3122 3108 3106 3094 3083 3090 3091 3095 3096 3097 3098 3098
3041 3045 3048 3054 3056 3061 3066 3062 3060 3060 3066 3068 3073 3072 3076 3078 3081 3082 3085 3086 3088 3091 3097 3098 3097 3096 3100 3102 3108 3108 3109 3112 3116 3113 3112 3095 3084 3080 3083 3085 3087 3089 3091 3092 3093
3031 3035 3040 3048 3050 3054 3054 3052 3051 3055 3060 3065 3064 3068 3070 3073 3077 3078 3079 3078 3082 3085 3089 3093 3093 3092 3093 3096 3099 3099 3102 3107 3110 3112 3114 3083 3077 3071 3077 3079 3081 3083 3083 3086 3087
3021 3026 3031 3038 3040 3043 3040 3041 3041 3045 3053 3058 3059 3063 3064 3067 3069 3071 3072 3075 3078 3080 3082 3086 3089 3086 3087 3086 3087 3094 3094 3097 3098 3098 3096 3095 3068 3067 3073 3076 3077 3078 3081 3081 3082
3011 3016 3020 3026 3030 3029 3030 3031 3035 3037 3044 3048 3050 3054 3058 3063 3064 3066 3065 3067 3073 3074 3075 3078 3080 3079 3079 3081 3083 3083 3083 3085 3087 3090 3091 3087 3059 3063 3067 3072 3076 3078 3078 3077 3078
3002 3004 3010 3016 3016 3018 3021 3024 3028 3031 3034 3039 3041 3044 3049 3054 3058 3056 3056 3059 3066 3069 3069 3072 3071 3075 3075 3075 3071 3072 3074 3079 3082 3084 3078 3080 3050 3057 3060 3066 3070 3073 3073 3074 3073
2994 2995 2999 3002 3007 3010 3012 3013 3019 3021 3027 3031 3033 3037 3039 3040 3042 3043 3046 3049 3056 3059 3065 3066 3062 3062 3060 3061 3063 3061 3061 3067 3072 3074 3053 3065 3039 3052 3054 3060 3064 3066 3068 3068 3067
2984 2984 2988 2993 2997 3001 3005 3005 3009 3011 3016 3022 3025 3027 3030 3030 3033 3035 3038 3040 3044 3048 3053 3056 3052 3053 3050 3055 3057 3057 3057 3059 3060 3049 3061 3039 3052 3025 3048 3050 3052 3055 3056 3057 3058
2976 2976 2979 2984 2989 2993 2995 2996 2999 3003 3005 3009 3015 3017 3019 3022 3023 3029 3030 3032 3036 3039 3042 3042 3042 3045 3040 3044 3046 3047 3049 3049 3043 3044 3050 3038 3036 3019 3039 3040 3040 3041 3044 3044 3045
2966 2969 2972 2974 2980 2985 2984 2986 2990 2995 2997 2999 3005 3009 3009 3012 3017 3020 3021 3024 3025 3028 3029 3031 3032 3034 3029 3029 3036 3033 3028 3028 3034 3032 3034 3032 3013 3026 3026 3029 3029 3032 3033 3031 3033